• In Uzbekistan
  • List of Countries
  • For 7 days
  • Water Temperature
  • Satellite Maps
  • Weather Map
  • Weather Widgets
  • user-avatar
    Login

    Hourly Weather Solden

    Today, 14 December, Friday

    Time Temperature Precipitation Wind Pressure Humidity
    00:00 -17°C° 0 mm 1 mps 572 mmHg 71%
    01:00 -17°C° 0 mm 1 mps 572 mmHg 71%
    02:00 -17°C° 0 mm 1 mps 572 mmHg 70%
    03:00 -17°C° 0 mm 1 mps 571 mmHg 69%
    04:00 -17°C° 0 mm 1 mps 571 mmHg 68%
    05:00 -17°C° 0 mm 1 mps 571 mmHg 67%
    06:00 -17°C° 0 mm 1 mps 571 mmHg 65%
    07:00 -17°C° 0 mm 1 mps 572 mmHg 64%
    08:00 -15°C° 0 mm 1 mps 572 mmHg 62%
    09:00 -14°C° 0 mm 1 mps 573 mmHg 60%
    10:00 -12°C° 0 mm 1 mps 574 mmHg 58%
    11:00 -10°C° 0 mm 1 mps 575 mmHg 54%
    12:00 -9°C° 0 mm 0 mps 576 mmHg 50%
    13:00 -8°C° 0 mm 0 mps 576 mmHg 47%
    14:00 -9°C° 0 mm 0 mps 576 mmHg 52%
    15:00 -11°C° 0 mm 0 mps 575 mmHg 58%
    16:00 -12°C° 0 mm 1 mps 574 mmHg 64%
    17:00 -13°C° 0 mm 1 mps 574 mmHg 64%
    18:00 -14°C° 0 mm 1 mps 574 mmHg 65%
    19:00 -15°C° 0 mm 1 mps 574 mmHg 66%
    20:00 -16°C° 0 mm 1 mps 574 mmHg 63%
    21:00 -16°C° 0 mm 1 mps 574 mmHg 60%
    22:00 -18°C° 0 mm 2 mps 574 mmHg 57%
    23:00 -18°C° 0 mm 2 mps 574 mmHg 56%

    Tomorrow, 15 December, Saturday

    Time Temperature Precipitation Wind Pressure Humidity
    00:00 -18°C° 0 mm 2 mps 574 mmHg 55%
    01:00 -19°C° 0 mm 2 mps 574 mmHg 54%
    02:00 -19°C° 0 mm 2 mps 574 mmHg 54%
    03:00 -19°C° 0 mm 2 mps 574 mmHg 54%
    04:00 -19°C° 0 mm 2 mps 574 mmHg 54%
    05:00 -19°C° 0 mm 2 mps 575 mmHg 54%
    06:00 -19°C° 0 mm 2 mps 575 mmHg 55%
    07:00 -19°C° 0 mm 2 mps 575 mmHg 55%
    08:00 -17°C° 0 mm 2 mps 576 mmHg 57%
    09:00 -16°C° 0 mm 2 mps 577 mmHg 58%
    10:00 -14°C° 0 mm 2 mps 578 mmHg 60%
    11:00 -13°C° 0 mm 2 mps 578 mmHg 58%
    12:00 -9°C° 0 mm 1 mps 578 mmHg 57%
    13:00 -7°C° 0 mm 1 mps 579 mmHg 56%
    14:00 -9°C° 0 mm 1 mps 578 mmHg 60%
    15:00 -10°C° 0 mm 1 mps 577 mmHg 64%
    16:00 -11°C° 0 mm 1 mps 577 mmHg 68%
    17:00 -12°C° 0 mm 1 mps 576 mmHg 65%
    18:00 -13°C° 0 mm 1 mps 576 mmHg 62%
    19:00 -14°C° 0 mm 1 mps 576 mmHg 60%
    20:00 -14°C° 0 mm 1 mps 576 mmHg 56%
    21:00 -14°C° 0 mm 1 mps 576 mmHg 51%
    22:00 -14°C° 0 mm 1 mps 576 mmHg 47%
    23:00 -13°C° 0 mm 1 mps 576 mmHg 46%

    Day after tomorrow, 16 December, Sunday

    Time Temperature Precipitation Wind Pressure Humidity
    00:00 -13°C° 0 mm 1 mps 576 mmHg 45%
    01:00 -12°C° 0 mm 1 mps 576 mmHg 44%
    02:00 -12°C° 0 mm 1 mps 576 mmHg 46%
    03:00 -11°C° 0 mm 1 mps 576 mmHg 48%
    04:00 -10°C° 0 mm 1 mps 576 mmHg 50%
    05:00 -12°C° 0.1 mm 2 mps 576 mmHg 54%
    06:00 -12°C° 0.1 mm 2 mps 576 mmHg 58%
    07:00 -10°C° 0.1 mm 2 mps 577 mmHg 62%
    08:00 -8°C° 0.2 mm 1 mps 577 mmHg 62%
    09:00 -7°C° 0.2 mm 1 mps 578 mmHg 62%
    10:00 -6°C° 0.2 mm 1 mps 578 mmHg 63%
    11:00 -4°C° 0.1 mm 1 mps 579 mmHg 62%
    12:00 -3°C° 0.1 mm 1 mps 579 mmHg 62%
    13:00 -2°C° 0.1 mm 1 mps 579 mmHg 62%
    14:00 -3°C° 0.3 mm 1 mps 579 mmHg 65%
    15:00 -4°C° 0.3 mm 1 mps 578 mmHg 69%
    16:00 -6°C° 0.3 mm 1 mps 578 mmHg 73%
    17:00 -6°C° 0.6 mm 1 mps 578 mmHg 75%
    18:00 -6°C° 0.6 mm 1 mps 578 mmHg 78%
    19:00 -7°C° 0.6 mm 1 mps 578 mmHg 80%
    20:00 -7°C° 0.3 mm 1 mps 578 mmHg 82%
    21:00 -7°C° 0.3 mm 1 mps 578 mmHg 83%
    22:00 -7°C° 0.3 mm 1 mps 579 mmHg 84%
    23:00 -7°C° 0.3 mm 1 mps 579 mmHg 85%

    17 December, Monday

    Time Temperature Precipitation Wind Pressure Humidity
    00:00 -7°C° 0.3 mm 1 mps 579 mmHg 86%
    01:00 -7°C° 0.3 mm 1 mps 579 mmHg 87%
    02:00 -7°C° 0 mm 1 mps 578 mmHg 87%
    03:00 -8°C° 0 mm 1 mps 578 mmHg 86%
    04:00 -8°C° 0 mm 1 mps 578 mmHg 86%
    05:00 -9°C° 0 mm 1 mps 578 mmHg 85%
    06:00 -10°C° 0 mm 1 mps 578 mmHg 84%
    07:00 -10°C° 0 mm 1 mps 577 mmHg 83%
    08:00 -9°C° 0 mm 1 mps 578 mmHg 79%
    09:00 -8°C° 0 mm 1 mps 579 mmHg 75%
    10:00 -7°C° 0 mm 1 mps 580 mmHg 71%
    11:00 -6°C° 0 mm 1 mps 581 mmHg 67%
    12:00 -4°C° 0 mm 1 mps 581 mmHg 64%
    13:00 -3°C° 0 mm 1 mps 581 mmHg 61%
    14:00 -4°C° 0 mm 1 mps 581 mmHg 66%
    15:00 -7°C° 0 mm 1 mps 580 mmHg 71%
    16:00 -8°C° 0 mm 1 mps 580 mmHg 77%
    17:00 -9°C° 0 mm 1 mps 580 mmHg 78%
    18:00 -12°C° 0 mm 2 mps 580 mmHg 79%
    19:00 -14°C° 0 mm 2 mps 580 mmHg 80%
    20:00 -14°C° 0 mm 2 mps 580 mmHg 78%
    21:00 -14°C° 0 mm 2 mps 581 mmHg 76%
    22:00 -14°C° 0 mm 2 mps 581 mmHg 75%
    23:00 -14°C° 0 mm 2 mps 581 mmHg 74%

    18 December, Tuesday

    Time Temperature Precipitation Wind Pressure Humidity
    00:00 -14°C° 0 mm 2 mps 581 mmHg 74%
    01:00 -12°C° 0 mm 1 mps 581 mmHg 74%
    02:00 -12°C° 0 mm 1 mps 581 mmHg 73%
    03:00 -12°C° 0 mm 1 mps 581 mmHg 73%
    04:00 -12°C° 0 mm 1 mps 581 mmHg 72%
    05:00 -12°C° 0 mm 1 mps 581 mmHg 71%
    06:00 -12°C° 0 mm 1 mps 581 mmHg 70%
    07:00 -12°C° 0 mm 1 mps 582 mmHg 69%
    08:00 -10°C° 0 mm 1 mps 582 mmHg 67%
    09:00 -9°C° 0 mm 1 mps 583 mmHg 64%
    10:00 -7°C° 0 mm 1 mps 584 mmHg 62%
    11:00 -6°C° 0 mm 1 mps 584 mmHg 60%
    12:00 -6°C° 0 mm 2 mps 584 mmHg 58%
    13:00 -4°C° 0 mm 2 mps 585 mmHg 56%
    14:00 -6°C° 0 mm 2 mps 584 mmHg 59%
    15:00 -7°C° 0 mm 2 mps 583 mmHg 62%
    16:00 -9°C° 0 mm 2 mps 582 mmHg 65%
    17:00 -9°C° 0 mm 2 mps 582 mmHg 63%
    18:00 -10°C° 0 mm 2 mps 582 mmHg 61%
    19:00 -12°C° 0 mm 2 mps 581 mmHg 59%
    20:00 -10°C° 0 mm 2 mps 581 mmHg 58%
    21:00 -10°C° 0 mm 2 mps 581 mmHg 57%
    22:00 -10°C° 0 mm 2 mps 581 mmHg 56%
    23:00 -10°C° 0 mm 2 mps 581 mmHg 57%

    19 December, Wednesday

    Time Temperature Precipitation Wind Pressure Humidity
    00:00 -12°C° 0 mm 3 mps 581 mmHg 58%
    01:00 -12°C° 0 mm 3 mps 581 mmHg 59%
    02:00 -10°C° 0 mm 2 mps 581 mmHg 59%
    03:00 -9°C° 0 mm 2 mps 581 mmHg 60%
    04:00 -9°C° 0 mm 2 mps 581 mmHg 60%
    05:00 -9°C° 0 mm 2 mps 581 mmHg 61%
    06:00 -9°C° 0 mm 2 mps 581 mmHg 62%
    07:00 -9°C° 0 mm 2 mps 580 mmHg 63%
    08:00 -8°C° 0 mm 2 mps 581 mmHg 65%
    09:00 -7°C° 0 mm 2 mps 581 mmHg 66%
    10:00 -7°C° 0 mm 2 mps 581 mmHg 68%
    11:00 -6°C° 0 mm 2 mps 581 mmHg 68%
    12:00 -5°C° 0 mm 2 mps 581 mmHg 69%
    13:00 -4°C° 0 mm 2 mps 581 mmHg 70%
    14:00 -5°C° 0 mm 2 mps 580 mmHg 74%
    15:00 -6°C° 0 mm 2 mps 580 mmHg 78%
    16:00 -7°C° 0 mm 2 mps 579 mmHg 82%
    17:00 -7°C° 0.1 mm 2 mps 579 mmHg 83%
    18:00 -7°C° 0.1 mm 2 mps 579 mmHg 85%
    19:00 -8°C° 0.1 mm 2 mps 579 mmHg 87%
    20:00 -8°C° 0.1 mm 2 mps 579 mmHg 88%
    21:00 -8°C° 0.1 mm 2 mps 578 mmHg 89%
    22:00 -8°C° 0.1 mm 2 mps 578 mmHg 90%
    23:00 -8°C° 0.3 mm 2 mps 578 mmHg 91%
    Show more